Wilmington, OH

1:18 PM EST on February 12, 2016 (GMT -0500)
2.2 N Wilmington | | Change Station
CLOSE
Current Station
Personal Weather Station
Location: Wilmington, OH
Elevation: 1053 ft
Nearby Weather Stations

Elev 1053 ft 39.47 °N, 83.84 °W | Updated 8 minutes ago

Overcast
Overcast
24.3 °F
Feels Like 14 °F
N
10.0
Wind Variable Wind from WSW
Gusts 12.0 mph

Today
High -- | Low -- °F
--% Chance of Precip.
Yesterday
High -- | Low -- °F
Precip. -- in
Pressure 30.20 in
Visibility 10.0 miles
Clouds Scattered Clouds 2700 ft
Overcast 4400 ft
Windchill 14 °F
Dew Point 16 °F
Humidity 71%
Rainfall 0.00 in
Snow Depth Not available.
7:31 AM 6:08 PM
Waxing Crescent, 22% visible
METAR KILN 121754Z AUTO 25010KT 10SM SCT027 OVC044 M05/M09 A3008 RMK AO2 SNE17 SLP227 P0000 60000 T10501094 11050 21106 56017
Pressure 30.20 in
Visibility 10.0 miles
Clouds Scattered Clouds 2700 ft
Overcast 4400 ft
Windchill 14 °F
Dew Point 16 °F
Humidity 71%
Rainfall 0.00 in
Snow Depth Not available.
7:31 AM 6:08 PM
Waxing Crescent, 22% visible
METAR KILN 121754Z AUTO 25010KT 10SM SCT027 OVC044 M05/M09 A3008 RMK AO2 SNE17 SLP227 P0000 60000 T10501094 11050 21106 56017

10-Day Weather Forecast

Almanac

Astronomy

Feb. 12, 2016 Rise Set
Actual Time
Civil Twilight
Nautical Twilight
Astronomical Twilight
Moon
Length of Visible Light
Length of Day
Tomorrow will be .
, % of the Moon is Illuminated

Today's Extremes

State Highs State Lows

Community

WunderPhotos

Upload Photos

1,892,359 photos uploaded!

WunderBlog® & News

Nearby

Air Quality

  Air Quality AQ Index Pollutant
Not available.

Snow Depth

Station Depth Elevation

Earthquake Activity

City Distance Mag. Time & Date
Minimum magnitude displayed is 2.5.

Coastal Water Temperatures

Place Temperature

Stations

Nearby Weather Stations

Station Location Temp. Windchill Dew Point Humidity Wind Precip. Elev Updated Type
                   

Watches & Warnings

There are currently no watches in effect.